Погода в Казани

Погода в Казани : погода сейчас, прогноз погоды и архив. Всё, что Вы хотите узнать о погоде в Казани!

Хотите узнать прогноз погоды в Казани? Тогда Вам сюда: Погода в Казани

Поиск расширенной информации на нашем сайте:

Другие новости

Новости СМИ2

Главная страница сайта

Новости сайта

03.07.2017

Напоминаем, что на нашем специализированном сайте Метеоцентр.Азия вы можете получить высокодетализированные автоматические прогнозы погоды по пунктам России, СНГ и мира в авиационном формате (включающие направление и скорость ветра, видимость, явления погоды, количество и форму облачности, нижнюю и верхнюю границу облачности).


Погода в Казани - сегодня

Время (UTC), дата Ветер
(°,м/с) 
Видим.   Явления Облачность Т
(°С)
Тd
(°С)
f(%) Тe
(°С)
Pmin
(гПа)
dP
(гПа)
Po
(мм)
O2
(г/м3)
Тmin Tmax R s Состояние
почвы
18 14.10.18 330 (СЗ) 10 км    10/10 600 м 
[Sc]
+4.7 -3.3 56 +6  1023.8  0.2  757  300           
21 14.10.18 160 (Ю) 10 км    10/9 600 м средняя 
[Sc|As op]
+3.7 -2.4 64 +5  1023.3  -0.6  756  301           
00 15.10.18 130 (ЮВ) 10 км    10/9 600 м средняя 
[Sc|As op]
+3.4 -1.5 70 +4  1023.2  -0.1  756  301           
03 15.10.18 140 (ЮВ) 10 км    10/9 600 м средняя 
[Sc|As op]
+3.5 -0.9 73 +4  1023  -0.2  756  301  +3.2        сухая 
06 15.10.18 200 (Ю) 10 км    10/0 средняя 
[As op]
+5.4 -0 68 +6  1022.1  -0.8  755  298           
09 15.10.18 240 (ЮЗ) 10 км    10/0 средняя 
[As op]
+6.6 +1.8 71 +6  1021.6  -0.4  755  297           
12 15.10.18 240 (ЮЗ) 10 км  слаб. морось  10/10 300 м 
[St]
+6.9 +5.7 92 +8  1021.7  0.1  755  296           
18 15.10.18 250 (З) 4000 м  дымка{морось}  10/10 300 м 
[St]
+7.7 +7.7 100 +9  1021.5  -0.5  755  295           
21 15.10.18 270 (З) 0500 м  туман{морось}  10/10 100 м 
[St]
+10 +10 100 +12  1020.6  -0.8  755  291           
00 16.10.18 290 (З) 10 км  {морось, туман}  10/10 600 м 
[Sc]
+10.3 +10.3 100 +11  1020.1  -0.5  754  291           
03 16.10.18 300 (СЗ) 10 км    10/10 600 м 
[Sc]
+8.8 +8.8 100 +9  1020.5  0.4  755  293  +6.6        влажная 
06 16.10.18 290 (З) 4000 м  дымка  10/10 200 м 
[St]
+8.3 +8.3 100 +8  1020.7  0.2  755  294           
09 16.10.18 300 (СЗ) 10 км    3/3 600 м 
[Sc]
+10.8 +8.7 87 +10  1020.7  0.1  755  291           
12 16.10.18 270 (З) 10 км    5/0 верхняя 
[Ci fib]
+15.8 +7.4 57 +16  1019.8  -0.7  754  286           
18 16.10.18 280 (З) 10 км    8/0 верхняя 
[Cc]
+10.9 +6.4 74 +11  1019  -0.9  753  291           
21 16.10.18 270 (З) 10 км    3/0 верхняя 
[Cc]
+10.4 +6.1 75 +11  1017.8  -1.2  753  291           
00 17.10.18 240 (ЮЗ) 10 км    5/0 средняя 
[Ac trans]
+8.8 +4.9 76 +9  1016.2  -1.7  751  292           
03 17.10.18 280 (З) 10 км    1/0 верхняя 
[Ci fib]
+7.8 +4.7 81 +7  1015.6  -0.6  751  293  +7.8        влажная 
06 17.10.18 300 (СЗ) 10 км    9/0 средняя, верхняя 
[Ac trans|Ci fib]
+8.8 +5.4 79 +8  1016  0.4  751  292  +7.6         
09 17.10.18 320 (СЗ) 10 км    6/3 600 м средняя, верхняя 
[Cu hum|Ac trans|Ci fib]
+12.7 +5.2 60 +13  1017.5  1.6  752  289           
12 17.10.18 330 (СЗ) 10 км    9/6 600 м средняя, верхняя 
[Cu med, cong|Ac trans|Ci fib]
+12.4 +3.4 54 +12  1020  2.5  754  290           
15 17.10.18 350 (С) 10 км    ясно 
+9.2 +0.7 55 +9  1023.5  3.3  757  295    +13.4       
18 17.10.18 340 (С) 10 км    3/0 верхняя 
[Ci fib]
+7 +0.2 62 +7  1025.1  1.5  758  298           
21 17.10.18 тихо ()   10 км    3/0 верхняя 
[Ci fib]
+3.2 +0 79 +3  1026.1  0.8  758  302           
00 18.10.18 300 (СЗ) 10 км    5/0 верхняя 
[Ci fib]
+3.1 +0.9 85 +4  1026.6  0.4  759  302           
Время (UTC), дата Ветер
(°,м/с) 
Видим.   Явления Облачность Т
(°С)
Тd
(°С)
f(%) Тe
(°С)
Pmin
(гПа)
dP
(гПа)
Po
(мм)
O2
(г/м3)
Тmin Tmax R s Состояние
почвы

Для получения пояснительной информации подведите курсор к названию столбца.

ПОГОДА в Казани - архив

Всё, что Вы хотите узнать о погоде в Казани - удобно и подробно!

Выберите нужную дату (начиная с 1 января 2015* года) и нажмите кнопку "Найти".
Будут отображены архивные сводки погоды по пункту Казань, начиная с указанной даты.


Отображать данные в формате CSV (для использования в таблицах Excel)


Внимание! Наш архив погоды предназначен исключительно для личного некоммерческого использования в познавательных целях. Если Вам необходимы официальные справки о состоянии погоды (для производственных, юридических, коммерческих и т.п. целей), обращайтесь в органы Росгидромета.

*Примечание: данная дата относится к архиву по метеостанциям СССР (Россия, СНГ, Балтия).
Архив по метеостанциям Зарубежной Европы и Азии (кроме Китая) хранится 10 дней, по другим регионам земного шара (Китай, Африка, Америка, Австралия, Океания) - 1 день.

Казань - район местоположения метеостанции


Название, широта, долгота, высота метеостанции:
Казань 55.6°ш. 49.3°д. 116 м над ур. моря [Российская Федерация]

Дополнительная информация

В oтличие oт бoльшинства пoгoдных сайтoв мы публикуем пoдрoбную метеoинфoрмацию в детальнoм прoфессиoнальнoм фoрмате.

Характеристики температуры и влажнoсти вoздуха измеряются на высoте 2 м в тени вдали oт зданий и деревьев.
Скoрoсть ветра измеряется на высoте 10 м (на урoвне рoста челoвека скoрoсть ветра ниже в 1.5-2 раза). Если метеoстанция нахoдится в гoрoде или в лесу, тo скoрoсть ветра занижена на 2-4 м/с пo сравнению с oткрытым местoм. Скoрoсть ветра над акватoриями крупных рек и oзёр, а также на вершинах хoлмoв на 2-5 м/с выше, чем в oбычных услoвиях.
Атмoсфернoе давление в разных тoчках местнoсти мoжет значительнo oтличаться oт давления на метеoстанции, в зависимoсти oт услoвий рельефа (при пoдъёме на 10 м давление пoнижается примернo на 1 мм рт.ст.).